Location: Civry
(47.2902°N, 4.6156°E)
Time: 23:25:44
(UTC+00:00)

Cosmos 1814 Rocket - Pass Details

Date: 09 April 2020
Orbit: 745 x 787 km, 74.1° (Epoch: 04 June)

Event Time Altitude Azimuth Distance (km) Brightness Sun altitude
Rises 21:38:49 0° 334° (NNW) 3,289 8.5 -28.2°
Reaches altitude 10° 21:41:15 10° 331° (NNW) 2,358 7.5 -28.5°
Enters shadow 21:46:15 57° 266° (W) 928 4.4 -29.0°
